Time,TemperatureF,DewpointF,PressureIn,WindDirection,WindDirectionDegrees,WindSpeedMPH,WindSpeedGustMPH,Humidity,HourlyPrecipIn,Conditions,Clouds,dailyrainin,SoftwareType,DateUTC
2013-03-01 00:08:00,56.7,49.6,29.77,West,270,3.2,-999.0,77,-99.99,,,0.00,Acu-Link.com,2013-03-01 05:08:00,
2013-03-01 00:23:00,56.3,49.5,29.77,SE,135,1.1,-999.0,78,-99.99,,,0.00,Acu-Link.com,2013-03-01 05:23:00,
2013-03-01 00:39:00,56.1,49.7,29.77,NNE,22,2.2,-999.0,79,-99.99,,,0.00,Acu-Link.com,2013-03-01 05:39:00,
2013-03-01 00:54:00,55.6,49.5,29.78,WNW,292,2.2,-999.0,80,-99.99,,,0.00,Acu-Link.com,2013-03-01 05:54:00,
2013-03-01 01:09:00,55.2,49.5,29.78,West,270,3.2,-999.0,81,-99.99,,,0.00,Acu-Link.com,2013-03-01 06:09:00,
2013-03-01 01:24:00,55.4,49.7,29.78,WNW,292,2.2,-999.0,81,-99.99,,,0.00,Acu-Link.com,2013-03-01 06:24:00,
2013-03-01 01:40:00,55.6,49.9,29.77,West,270,3.7,-999.0,81,-99.99,,,0.00,Acu-Link.com,2013-03-01 06:40:00,
2013-03-01 01:55:00,55.6,49.9,29.76,West,270,2.2,-999.0,81,-99.99,,,0.00,Acu-Link.com,2013-03-01 06:55:00,
2013-03-01 02:10:00,55.8,49.7,29.76,South,180,2.7,-999.0,80,-99.99,,,0.00,Acu-Link.com,2013-03-01 07:10:00,
2013-03-01 02:26:00,55.8,49.7,29.77,WSW,247,1.7,-999.0,80,-99.99,,,0.00,Acu-Link.com,2013-03-01 07:26:00,
2013-03-01 02:41:00,55.6,49.2,29.76,NNW,337,2.7,-999.0,79,-99.99,,,0.00,Acu-Link.com,2013-03-01 07:41:00,
2013-03-01 02:56:00,55.0,48.9,29.77,NNW,337,1.7,-999.0,80,-99.99,,,0.00,Acu-Link.com,2013-03-01 07:56:00,
2013-03-01 03:11:00,54.1,48.4,29.76,West,270,1.1,-999.0,81,-99.99,,,0.00,Acu-Link.com,2013-03-01 08:11:00,
2013-03-01 03:27:00,53.8,48.4,29.76,West,270,1.7,-999.0,82,-99.99,,,0.00,Acu-Link.com,2013-03-01 08:27:00,
2013-03-01 03:42:00,53.8,48.4,29.76,WNW,292,1.7,-999.0,82,-99.99,,,0.00,Acu-Link.com,2013-03-01 08:42:00,
2013-03-01 03:57:00,54.0,48.3,29.76,WSW,247,1.7,-999.0,81,-99.99,,,0.00,Acu-Link.com,2013-03-01 08:57:00,
2013-03-01 04:19:00,54.1,48.4,29.75,West,270,3.7,-999.0,81,-99.99,,,0.00,Acu-Link.com,2013-03-01 09:19:00,
2013-03-01 04:34:00,54.3,48.3,29.74,West,270,2.7,-999.0,80,-99.99,,,0.00,Acu-Link.com,2013-03-01 09:34:00,
2013-03-01 04:50:00,54.3,47.9,29.75,SSE,157,1.7,-999.0,79,-99.99,,,0.00,Acu-Link.com,2013-03-01 09:50:00,
2013-03-01 05:05:00,54.3,47.9,29.75,WNW,292,2.2,-999.0,79,-99.99,,,0.00,Acu-Link.com,2013-03-01 10:05:00,
2013-03-01 05:20:00,53.8,47.8,29.75,NNW,337,2.7,-999.0,80,-99.99,,,0.00,Acu-Link.com,2013-03-01 10:20:00,
2013-03-01 05:35:00,52.9,47.2,29.76,WSW,247,0.0,-999.0,81,-99.99,,,0.00,Acu-Link.com,2013-03-01 10:35:00,
2013-03-01 05:51:00,52.3,47.3,29.77,WSW,247,1.7,-999.0,83,-99.99,,,0.00,Acu-Link.com,2013-03-01 10:51:00,
2013-03-01 06:06:00,52.2,47.5,29.76,WSW,247,0.0,-999.0,84,-99.99,,,0.00,Acu-Link.com,2013-03-01 11:06:00,
2013-03-01 06:21:00,51.6,47.2,29.78,WNW,292,2.2,-999.0,85,-99.99,,,0.00,Acu-Link.com,2013-03-01 11:21:00,
2013-03-01 06:36:00,51.6,47.2,29.79,WNW,292,0.0,-999.0,85,-99.99,,,0.00,Acu-Link.com,2013-03-01 11:36:00,
2013-03-01 06:52:00,52.0,47.6,29.79,West,270,2.2,-999.0,85,-99.99,,,0.00,Acu-Link.com,2013-03-01 11:52:00,
2013-03-01 07:07:00,52.2,47.2,29.80,WSW,247,3.2,-999.0,83,-99.99,,,0.00,Acu-Link.com,2013-03-01 12:07:00,
2013-03-01 07:22:00,52.5,46.8,29.81,West,270,0.0,-999.0,81,-99.99,,,0.00,Acu-Link.com,2013-03-01 12:22:00,
2013-03-01 07:38:00,52.9,46.6,29.82,SW,225,4.7,-999.0,79,-99.99,,,0.00,Acu-Link.com,2013-03-01 12:38:00,
2013-03-01 07:53:00,53.2,46.2,29.81,West,270,3.2,-999.0,77,-99.99,,,0.00,Acu-Link.com,2013-03-01 12:53:00,
2013-03-01 08:08:00,53.6,45.2,29.81,West,270,2.2,-999.0,73,-99.99,,,0.00,Acu-Link.com,2013-03-01 13:08:00,
2013-03-01 08:23:00,54.1,45.3,29.82,SSW,202,0.0,-999.0,72,-99.99,,,0.00,Acu-Link.com,2013-03-01 13:23:00,
2013-03-01 08:39:00,54.9,43.8,29.82,West,270,2.7,-999.0,66,-99.99,,,0.00,Acu-Link.com,2013-03-01 13:39:00,
2013-03-01 08:54:00,55.6,44.0,29.82,West,270,1.7,-999.0,65,-99.99,,,0.00,Acu-Link.com,2013-03-01 13:54:00,
2013-03-01 09:09:00,55.9,43.1,29.83,West,270,1.1,-999.0,62,-99.99,,,0.00,Acu-Link.com,2013-03-01 14:09:00,
2013-03-01 09:24:00,57.2,43.4,29.83,WSW,247,2.7,-999.0,60,-99.99,,,0.00,Acu-Link.com,2013-03-01 14:24:00,
2013-03-01 09:40:00,57.6,44.3,29.83,WSW,247,0.0,-999.0,61,-99.99,,,0.00,Acu-Link.com,2013-03-01 14:40:00,
2013-03-01 09:55:00,56.5,42.3,29.83,SW,225,0.0,-999.0,59,-99.99,,,0.00,Acu-Link.com,2013-03-01 14:55:00,
2013-03-01 10:10:00,59.7,43.0,29.82,WNW,292,3.7,-999.0,54,-99.99,,,0.00,Acu-Link.com,2013-03-01 15:10:00,
2013-03-01 10:26:00,61.2,43.4,29.82,NW,315,2.7,-999.0,52,-99.99,,,0.00,Acu-Link.com,2013-03-01 15:26:00,
2013-03-01 10:41:00,61.3,44.0,29.83,North,0,3.7,-999.0,53,-99.99,,,0.00,Acu-Link.com,2013-03-01 15:41:00,
2013-03-01 10:56:00,64.8,43.0,29.83,WNW,292,1.1,-999.0,45,-99.99,,,0.00,Acu-Link.com,2013-03-01 15:56:00,
2013-03-01 11:11:00,63.1,42.0,29.82,West,270,4.7,-999.0,46,-99.99,,,0.00,Acu-Link.com,2013-03-01 16:11:00,
2013-03-01 11:27:00,63.9,42.7,29.82,WNW,292,2.2,-999.0,46,-99.99,,,0.00,Acu-Link.com,2013-03-01 16:27:00,
2013-03-01 11:42:00,65.3,43.4,29.81,WSW,247,3.2,-999.0,45,-99.99,,,0.00,Acu-Link.com,2013-03-01 16:42:00,
2013-03-01 11:57:00,64.4,40.8,29.82,WNW,292,8.3,-999.0,42,-99.99,,,0.00,Acu-Link.com,2013-03-01 16:57:00,
2013-03-01 12:12:00,65.5,42.4,29.80,NNE,22,2.7,-999.0,43,-99.99,,,0.00,Acu-Link.com,2013-03-01 17:12:00,
2013-03-01 12:27:00,67.1,41.3,29.80,WNW,292,4.2,-999.0,39,-99.99,,,0.00,Acu-Link.com,2013-03-01 17:27:00,
2013-03-01 12:43:00,65.5,39.9,29.79,West,270,6.3,-999.0,39,-99.99,,,0.00,Acu-Link.com,2013-03-01 17:43:00,
2013-03-01 12:58:00,64.0,37.9,29.78,WNW,292,4.2,-999.0,38,-99.99,,,0.00,Acu-Link.com,2013-03-01 17:58:00,
2013-03-01 13:13:00,63.7,37.6,29.78,North,0,3.7,-999.0,38,-99.99,,,0.00,Acu-Link.com,2013-03-01 18:13:00,
2013-03-01 13:28:00,62.8,36.8,29.77,SSE,157,3.2,-999.0,38,-99.99,,,0.00,Acu-Link.com,2013-03-01 18:28:00,
2013-03-01 13:43:00,63.5,37.4,29.76,West,270,4.7,-999.0,38,-99.99,,,0.00,Acu-Link.com,2013-03-01 18:43:00,
2013-03-01 13:58:00,64.0,38.5,29.77,SSW,202,2.2,-999.0,39,-99.99,,,0.00,Acu-Link.com,2013-03-01 18:58:00,
2013-03-01 14:14:00,62.6,37.3,29.76,NNW,337,4.2,-999.0,39,-99.99,,,0.00,Acu-Link.com,2013-03-01 19:14:00,
2013-03-01 14:29:00,62.4,37.8,29.76,North,0,3.2,-999.0,40,-99.99,,,0.00,Acu-Link.com,2013-03-01 19:29:00,
2013-03-01 14:44:00,61.5,38.2,29.77,WNW,292,4.7,-999.0,42,-99.99,,,0.00,Acu-Link.com,2013-03-01 19:44:00,
2013-03-01 15:00:00,61.2,37.9,29.76,SE,135,3.2,-999.0,42,-99.99,,,0.00,Acu-Link.com,2013-03-01 20:00:00,
2013-03-01 15:15:00,61.2,38.5,29.76,WSW,247,3.7,-999.0,43,-99.99,,,0.00,Acu-Link.com,2013-03-01 20:15:00,
2013-03-01 15:30:00,61.0,38.9,29.76,West,270,1.1,-999.0,44,-99.99,,,0.00,Acu-Link.com,2013-03-01 20:30:00,
2013-03-01 15:45:00,60.8,39.9,29.77,South,180,1.7,-999.0,46,-99.99,,,0.00,Acu-Link.com,2013-03-01 20:45:00,
2013-03-01 16:01:00,60.4,39.5,29.77,SSW,202,2.2,-999.0,46,-99.99,,,0.00,Acu-Link.com,2013-03-01 21:01:00,
2013-03-01 16:16:00,59.9,39.6,29.78,SW,225,2.7,-999.0,47,-99.99,,,0.00,Acu-Link.com,2013-03-01 21:16:00,
2013-03-01 16:31:00,60.1,40.3,29.77,West,270,2.2,-999.0,48,-99.99,,,0.00,Acu-Link.com,2013-03-01 21:31:00,
2013-03-01 16:46:00,59.9,40.7,29.77,WNW,292,2.2,-999.0,49,-99.99,,,0.00,Acu-Link.com,2013-03-01 21:46:00,
2013-03-01 17:02:00,59.5,40.8,29.77,SW,225,1.1,-999.0,50,-99.99,,,0.00,Acu-Link.com,2013-03-01 22:02:00,
2013-03-01 17:17:00,59.4,41.3,29.77,WSW,247,1.7,-999.0,51,-99.99,,,0.00,Acu-Link.com,2013-03-01 22:17:00,
2013-03-01 17:32:00,59.0,41.4,29.76,SW,225,1.7,-999.0,52,-99.99,,,0.00,Acu-Link.com,2013-03-01 22:32:00,
2013-03-01 17:48:00,58.6,41.5,29.77,WSW,247,1.1,-999.0,53,-99.99,,,0.00,Acu-Link.com,2013-03-01 22:48:00,
2013-03-01 18:03:00,58.5,42.4,29.77,SSW,202,1.7,-999.0,55,-99.99,,,0.00,Acu-Link.com,2013-03-01 23:03:00,
2013-03-01 18:18:00,58.3,43.1,29.78,West,270,1.1,-999.0,57,-99.99,,,0.00,Acu-Link.com,2013-03-01 23:18:00,
2013-03-01 18:33:00,57.9,42.8,29.77,West,270,1.7,-999.0,57,-99.99,,,0.00,Acu-Link.com,2013-03-01 23:33:00,
2013-03-01 18:49:00,57.7,43.0,29.78,South,180,2.7,-999.0,58,-99.99,,,0.00,Acu-Link.com,2013-03-01 23:49:00,
2013-03-01 19:04:00,57.6,42.9,29.79,SSE,157,1.7,-999.0,58,-99.99,,,0.00,Acu-Link.com,2013-03-02 00:04:00,
2013-03-01 19:19:00,57.4,43.6,29.80,North,0,0.0,-999.0,60,-99.99,,,0.00,Acu-Link.com,2013-03-02 00:19:00,
2013-03-01 19:35:00,57.4,43.2,29.79,SE,135,3.2,-999.0,59,-99.99,,,0.00,Acu-Link.com,2013-03-02 00:35:00,
2013-03-01 19:50:00,57.4,42.7,29.79,SSW,202,2.7,-999.0,58,-99.99,,,0.00,Acu-Link.com,2013-03-02 00:50:00,
2013-03-01 20:05:00,57.4,43.2,29.80,ENE,67,1.7,-999.0,59,-99.99,,,0.00,Acu-Link.com,2013-03-02 01:05:00,
2013-03-01 20:21:00,57.2,43.9,29.80,ESE,112,2.2,-999.0,61,-99.99,,,0.00,Acu-Link.com,2013-03-02 01:21:00,
2013-03-01 20:36:00,57.0,43.7,29.81,West,270,2.2,-999.0,61,-99.99,,,0.00,Acu-Link.com,2013-03-02 01:36:00,
2013-03-01 20:51:00,56.8,43.1,29.81,ESE,112,1.7,-999.0,60,-99.99,,,0.00,Acu-Link.com,2013-03-02 01:51:00,
2013-03-01 21:06:00,56.8,42.6,29.81,NW,315,2.7,-999.0,59,-99.99,,,0.00,Acu-Link.com,2013-03-02 02:06:00,
2013-03-01 21:21:00,56.7,43.0,29.82,WNW,292,3.2,-999.0,60,-99.99,,,0.00,Acu-Link.com,2013-03-02 02:21:00,
2013-03-01 21:37:00,56.5,42.3,29.81,South,180,1.7,-999.0,59,-99.99,,,0.00,Acu-Link.com,2013-03-02 02:37:00,
2013-03-01 21:52:00,56.3,41.7,29.81,NNW,337,2.7,-999.0,58,-99.99,,,0.00,Acu-Link.com,2013-03-02 02:52:00,
2013-03-01 22:07:00,56.1,41.5,29.82,West,270,2.7,-999.0,58,-99.99,,,0.00,Acu-Link.com,2013-03-02 03:07:00,
2013-03-01 22:22:00,55.8,41.2,29.83,WNW,292,2.7,-999.0,58,-99.99,,,0.00,Acu-Link.com,2013-03-02 03:22:00,
2013-03-01 22:38:00,55.4,40.4,29.82,NW,315,2.7,-999.0,57,-99.99,,,0.00,Acu-Link.com,2013-03-02 03:38:00,
2013-03-01 22:53:00,55.2,38.8,29.83,South,180,2.2,-999.0,54,-99.99,,,0.00,Acu-Link.com,2013-03-02 03:53:00,
2013-03-01 23:08:00,55.0,38.2,29.83,WSW,247,2.7,-999.0,53,-99.99,,,0.00,Acu-Link.com,2013-03-02 04:08:00,
2013-03-01 23:24:00,54.7,38.4,29.82,NNW,337,1.7,-999.0,54,-99.99,,,0.00,Acu-Link.com,2013-03-02 04:24:00,
2013-03-01 23:39:00,54.3,38.9,29.82,WSW,247,2.2,-999.0,56,-99.99,,,0.00,Acu-Link.com,2013-03-02 04:39:00,
2013-03-01 23:54:00,54.1,39.7,29.82,WNW,292,3.2,-999.0,58,-99.99,,,0.00,Acu-Link.com,2013-03-02 04:54:00,